Regional Weather Roundup
Issued by NWS Charleston, WV

Home | Current Version | Previous Version | Graphics & Text | Print | Product List | Glossary On
Versions: 1 2 3 4 5 6 7 8 9 10 11 12 13 14 15 16 17 18 19 20 21 22 23 24 25 26 27 28 29 30 31 32 33 34 35 36 37 38 39 40 41 42 43 44 45 46 47 48 49 50
000
ASUS41 KRLX 030610
RWRRLX
West Virginia Regional Weather Roundup
National Weather Service Charleston WV
100 AM EST TUE MAR 03 2015

Note: "fair" indicates few or no clouds below 12,000 feet with no
significant weather and/or obstructions to visibility.

WVZ003-030700-
Northern Panhandle of West Virginia

CITY           SKY/WX    TMP DP  RH WIND       PRES   REMARKS
WHEELING         N/A     20  12  71 E7        30.33F
$$

WVZ009-030700-
Northwest West Virginia

CITY           SKY/WX    TMP DP  RH WIND       PRES   REMARKS
PARKERSBURG      N/A     23  17  78 CALM      30.37F
$$

WVZ006-030700-
Western West Virginia

CITY           SKY/WX    TMP DP  RH WIND       PRES   REMARKS
HUNTINGTON       N/A     28  21  75 NE5       30.30F
$$

WVZ015-030700-
West Central West Virginia

CITY           SKY/WX    TMP DP  RH WIND       PRES   REMARKS
CHARLESTON       N/A     29  21  72 NE5       30.30F
$$

WVZ022-031-030700-
North Central West Virginia

CITY           SKY/WX    TMP DP  RH WIND       PRES   REMARKS
CLARKSBURG       N/A     22  18  85 CALM      30.33F
MORGANTOWN       N/A     24  14  65 CALM      30.35F
$$

WVZ025-035-042-045-030700-
Southern West Virginia

CITY           SKY/WX    TMP DP  RH WIND       PRES   REMARKS
BECKLEY          N/A     30  15  53 SE8       30.23F
LOGAN            N/A     30  19  64 CALM      30.21F
BLUEFIELD        N/A     31  15  52 E6        30.24F
LEWISBURG        N/A     25  19  75 N3        30.29F
$$

WVZ047-030700-
Northern Mountains of West Virginia

CITY           SKY/WX    TMP DP  RH WIND       PRES   REMARKS
ELKINS         MOCLDY    19  18  95 CALM      30.29F
$$

WVZ052-030700-
Eastern Panhandle of West Virginia

CITY           SKY/WX    TMP DP  RH WIND       PRES   REMARKS
MARTINSBURG      N/A     24  14  65 E3        30.40F
PETERSBURG       N/A     26  19  75 CALM      30.37F
$$


USA.gov is the U.S. government's official web portal to all federal, state and local government web resources and services.